Weather History for Middletown, OH

Change the Weather History Date:

Tuesday, January 1, 2013

  Actual Average (KDAY) Record (KDAY)
Temperature  
Mean Temperature 27 °F 28 °F  
Max Temperature 32 °F 35 °F 61 °F (1952)
Min Temperature 22 °F 21 °F -8 °F (1968)
Degree Days  
Heating Degree Days 38 37  
Month to date heating degree days 37  
Since 1 July heating degree days 2196  
Cooling Degree Days 0 0  
Month to date cooling degree days 0  
Year to date cooling degree days 0  
Moisture  
Dew Point 28 °F    
Average Humidity 91    
Maximum Humidity 100    
Minimum Humidity 76    
Precipitation  
Precipitation 0.00 in 0.10 in 1.65 in (1948)
Month to date precipitation 0.10  
Year to date precipitation 0.10  
Snow  
Snow 0.00 in 0.20 in 9.80 in (1964)
Month to date snowfall 0.2  
Since 1 July snowfall 5.7  
Snow Depth -    
Sea Level Pressure  
Sea Level Pressure 30.10 in    
Wind  
Wind Speed 4 mph (North)    
Max Wind Speed 9 mph    
Max Gust Speed -    
Visibility 6 miles    
Events Snow    
T = Trace of Precipitation, MM = Missing Value Source: NWS Daily Summary

Daily Weather History Graph

Daily Weather History Graph

Search for Another Location

Airport:

Trip Planner

Search our weather history database for the weather conditions in past years. The results will help you decide how hot, cold, wet, or windy it might be!

Date:

Astronomy

Jan. 01, 2013 Rise Set
Actual Time 7:58 AM EST 5:24 PM EST
Civil Twilight 7:27 AM EST 5:54 PM EST
Nautical Twilight 6:54 AM EST 6:28 PM EST
Astronomical Twilight 6:21 AM EST 7:01 PM EST
Moon 9:53 PM EST (1/1) 10:10 AM EST (1/1)
Length of Visible Light 10h 26m
Length of Day
9h 26m
Waning Gibbous, 83% of the Moon is Illuminated
Jan 1
Waning Gibbous
Jan 4
Last Quarter
Jan 11
New
Jan 18
First Quarter
Jan 26
Full

Hourly Weather History & Observations

Time (EST) Temp. Windchill Dew Point Humidity Pressure Visibility Wind Dir Wind Speed Gust Speed Precip Events Conditions
12:15 AM 32.5 °F 24.8 °F 32.5 °F 100% 30.09 in 3.0 mi SW 9.2 mph - N/A Snow Light Snow
12:35 AM 32.5 °F 26.2 °F 32.5 °F 100% 30.07 in 2.0 mi SW 6.9 mph - N/A Snow Light Snow
12:55 AM 32.5 °F 27.1 °F 32.5 °F 100% 30.06 in 3.0 mi SW 5.8 mph - N/A Snow Light Snow
1:15 AM 32.5 °F 27.1 °F 32.5 °F 100% 30.06 in 2.5 mi SW 5.8 mph - N/A Snow Light Snow
1:35 AM 32.5 °F 26.2 °F 32.5 °F 100% 30.06 in 3.0 mi SW 6.9 mph - N/A Snow Light Snow
1:55 AM 32.5 °F - 32.5 °F 100% 30.06 in 3.0 mi Calm Calm - N/A Snow Light Snow
2:15 AM 32.5 °F - 32.5 °F 100% 30.05 in 4.0 mi Calm Calm - N/A   Drizzle
2:35 AM 32.5 °F - 32.5 °F 100% 30.06 in 3.0 mi Calm Calm - N/A Snow Light Snow
3:15 AM 32.5 °F - 32.5 °F 100% 30.05 in 4.0 mi Calm Calm - N/A   Overcast
3:35 AM 32.5 °F - 32.5 °F 100% 30.05 in 4.0 mi Calm Calm - N/A   Overcast
3:55 AM 32.5 °F - 32.5 °F 100% 30.05 in 3.0 mi Calm Calm - N/A   Overcast
4:15 AM 32.5 °F - 32.5 °F 100% 30.06 in 4.0 mi Calm Calm - N/A   Overcast
4:35 AM 32.5 °F - 32.5 °F 100% 30.05 in 3.0 mi Calm Calm - N/A   Overcast
4:55 AM 32.5 °F - 32.5 °F 100% 30.07 in 2.0 mi Calm Calm - N/A   Overcast
5:15 AM 32.5 °F - 32.5 °F 100% 30.07 in 1.8 mi Calm Calm - N/A Snow Light Snow
5:35 AM 32.5 °F - 32.5 °F 100% 30.06 in 2.5 mi Calm Calm - N/A   Overcast
6:15 AM 32.5 °F - 32.5 °F 100% 30.07 in 3.0 mi Calm Calm - N/A Snow Light Snow
6:35 AM 32.5 °F - 32.5 °F 100% 30.06 in 3.0 mi Calm Calm - N/A Snow Snow
7:15 AM 32.5 °F - 32.5 °F 100% 30.08 in 3.0 mi Calm Calm - N/A   Overcast
7:35 AM 32.5 °F - 32.5 °F 100% 30.08 in 3.0 mi Calm Calm - N/A   Overcast
7:55 AM 32.5 °F - 32.5 °F 100% 30.10 in 4.0 mi Calm Calm - N/A   Overcast
8:15 AM 32.5 °F - 32.5 °F 100% 30.09 in 4.0 mi Calm Calm - N/A   Overcast
8:35 AM 32.5 °F - 32.5 °F 100% 30.09 in 3.0 mi Calm Calm - N/A   Overcast
8:55 AM 32.5 °F 26.2 °F 32.5 °F 100% 30.10 in 2.5 mi North 6.9 mph - N/A   Overcast
9:15 AM 32.5 °F 29.3 °F 32.5 °F 100% 30.09 in 2.5 mi North 3.5 mph - N/A   Overcast
9:35 AM 32.5 °F 28.1 °F 32.5 °F 100% 30.09 in 2.5 mi NNE 4.6 mph - N/A   Overcast
9:55 AM 32.5 °F 25.5 °F 32.5 °F 100% 30.09 in 3.0 mi North 8.1 mph - N/A   Overcast
10:15 AM 32.5 °F 25.5 °F 32.0 °F 98% 30.11 in 4.0 mi North 8.1 mph - N/A   Overcast
10:35 AM 32.5 °F 26.2 °F 31.8 °F 97% 30.11 in 4.0 mi North 6.9 mph - N/A   Overcast
10:55 AM 32.5 °F 26.2 °F 31.6 °F 96% 30.11 in 4.0 mi North 6.9 mph - N/A   Overcast
11:15 AM 32.5 °F 24.8 °F 31.1 °F 94% 30.12 in 4.0 mi North 9.2 mph - N/A   Overcast
11:35 AM 32.5 °F 24.8 °F 30.6 °F 92% 30.13 in 5.0 mi North 9.2 mph - N/A   Overcast
11:55 AM 32.5 °F 26.2 °F 30.7 °F 93% 30.13 in 5.0 mi NNE 6.9 mph - N/A   Overcast
12:15 PM 32.5 °F 26.2 °F 30.6 °F 92% 30.12 in 5.0 mi NNW 6.9 mph - N/A   Overcast
12:35 PM 32.5 °F 28.1 °F 30.2 °F 91% 30.10 in 5.0 mi North 4.6 mph - N/A   Overcast
1:15 PM 32.5 °F 26.2 °F 28.9 °F 87% 30.07 in 7.0 mi North 6.9 mph - N/A   Overcast
1:35 PM 32.5 °F 25.5 °F 27.9 °F 83% 30.10 in 10.0 mi North 8.1 mph - N/A   Overcast
1:55 PM 32.5 °F 25.5 °F 27.5 °F 82% 30.09 in 10.0 mi North 8.1 mph - N/A   Mostly Cloudy
2:15 PM 32.5 °F 26.2 °F 28.2 °F 84% 30.09 in 10.0 mi NNE 6.9 mph - N/A   Scattered Clouds
2:35 PM 32.5 °F 24.8 °F 26.6 °F 79% 30.10 in 10.0 mi North 9.2 mph - N/A   Clear
2:55 PM 32.5 °F 28.1 °F 26.6 °F 79% 30.09 in 10.0 mi NNE 4.6 mph - N/A   Clear
3:15 PM 32.5 °F 26.2 °F 26.6 °F 79% 30.09 in 10.0 mi North 6.9 mph - N/A   Clear
3:35 PM 30.2 °F 24.3 °F 23.9 °F 77% 30.11 in 10.0 mi North 5.8 mph - N/A   Scattered Clouds
3:55 PM 30.2 °F 22.6 °F 23.7 °F 77% 30.11 in 10.0 mi North 8.1 mph - N/A   Scattered Clouds
4:15 PM 30.2 °F 21.9 °F 23.9 °F 77% 30.10 in 10.0 mi North 9.2 mph - N/A   Scattered Clouds
4:35 PM 29.1 °F 22.1 °F 23.0 °F 78% 30.10 in 10.0 mi North 6.9 mph - N/A   Clear
4:55 PM 29.1 °F 22.1 °F 22.3 °F 76% 30.11 in 10.0 mi North 6.9 mph - N/A   Clear
5:15 PM 27.9 °F 20.6 °F 21.9 °F 78% 30.10 in 10.0 mi North 6.9 mph - N/A   Clear
5:35 PM 27.9 °F 24.0 °F 22.3 °F 80% 30.12 in 10.0 mi NNW 3.5 mph - N/A   Clear
5:55 PM 27.9 °F 22.6 °F 23.0 °F 82% 30.12 in 10.0 mi North 4.6 mph - N/A   Clear
6:15 PM 27.9 °F 21.5 °F 22.8 °F 81% 30.13 in 10.0 mi North 5.8 mph - N/A   Scattered Clouds
6:35 PM 27.9 °F 21.5 °F 23.0 °F 82% 30.12 in 10.0 mi North 5.8 mph - N/A   Overcast
6:55 PM 27.9 °F 22.6 °F 23.0 °F 82% 30.13 in 10.0 mi North 4.6 mph - N/A   Overcast
7:15 PM 27.9 °F 22.6 °F 23.5 °F 84% 30.13 in 10.0 mi North 4.6 mph - N/A   Overcast
7:35 PM 27.9 °F 24.0 °F 23.7 °F 84% 30.12 in 10.0 mi North 3.5 mph - N/A   Overcast
7:55 PM 27.9 °F 22.6 °F 23.7 °F 84% 30.13 in 10.0 mi North 4.6 mph - N/A   Overcast
8:15 PM 27.9 °F - 23.7 °F 84% 30.14 in 10.0 mi Calm Calm - N/A   Overcast
8:35 PM 27.9 °F - 23.7 °F 84% 30.14 in 10.0 mi Calm Calm - N/A   Overcast
8:55 PM 27.9 °F 22.6 °F 24.1 °F 86% 30.14 in 10.0 mi North 4.6 mph - N/A   Overcast
9:15 PM 27.9 °F 22.6 °F 24.4 °F 87% 30.16 in 10.0 mi North 4.6 mph - N/A   Overcast
9:35 PM 27.9 °F 24.0 °F 24.4 °F 87% 30.16 in 10.0 mi North 3.5 mph - N/A   Overcast
9:55 PM 25.3 °F 19.7 °F 22.3 °F 88% 30.17 in 10.0 mi North 4.6 mph - N/A   Mostly Cloudy
10:15 PM 25.3 °F 21.1 °F 22.6 °F 89% 30.16 in 10.0 mi North 3.5 mph - N/A   Overcast
10:35 PM 25.3 °F - 22.6 °F 89% 30.16 in 10.0 mi Calm Calm - N/A   Overcast
10:55 PM 24.1 °F - 21.9 °F 91% 30.16 in 10.0 mi Calm Calm - N/A   Overcast
11:15 PM 22.8 °F - 20.7 °F 91% 30.15 in 10.0 mi Calm Calm - N/A   Mostly Cloudy
11:35 PM 22.8 °F - 21.2 °F 93% 30.16 in 7.0 mi Calm Calm - N/A   Mostly Cloudy
11:55 PM 22.8 °F - 21.4 °F 94% 30.17 in 7.0 mi Calm Calm - N/A   Mostly Cloudy